Location: IoMAS Observatory
(54.1780°N, 4.6265°W)
Time: 10:01:39
(UTC+01:00)

ISS - Pass Details

Date: 07 December 2021
Orbit: 413 x 422 km, 51.6° (Epoch: 23 January)

Event Time Altitude Azimuth Distance (km) Brightness Sun altitude
Rises 18:39:25 0° 276° (W) 2,385 1.3 -13.9°
Reaches altitude 10° 18:42:05 10° 255° (WSW) 1,515 0.5 -14.3°
Maximum altitude 18:44:15 16° 215° (SW) 1,191 -0.7 -14.6°
Drops below altitude 10° 18:46:26 10° 175° (S) 1,505 -0.8 -14.9°
Enters shadow 18:50:20 -4° 147° (SSE) 2,838 0.3 -15.4°
